Location: *
(44.3925°N, 5.4708°E)
Time: 23:21:44
(UTC+00:00)

Cosmos 1624 Rocket - Pass Details

Date: 18 September 2019
Orbit: 757 x 784 km, 74.0° (Epoch: 15 October)

Event Time Altitude Azimuth Distance (km) Brightness Sun altitude
Rises 19:59:34 0° 209° (SSW) 3,207 7.2 -24.0°
Reaches altitude 10° 20:01:58 10° 213° (SSW) 2,283 6.5 -24.4°
Maximum altitude 20:07:05 62° 293° (WNW) 856 4.4 -25.2°
Drops below altitude 10° 20:12:14 10° 15° (NNE) 2,296 6.6 -26.0°
Sets 20:14:39 0° 19° (NNE) 3,226 7.4 -26.3°
